Date,TemperatureHighF,TemperatureAvgF,TemperatureLowF,DewpointHighF,DewpointAvgF,DewpointLowF,HumidityHigh,HumidityAvg,HumidityLow,PressureMaxIn,PressureMinIn,WindSpeedMaxMPH,WindSpeedAvgMPH,GustSpeedMaxMPH,PrecipitationSumIn
2013-1-1,44.9,40.8,31.4,23.0,18.2,13.1,62,40,34,30.09,30.01,26,8,26,0.00
2013-1-2,49.1,41.8,33.6,29.7,22.4,14.4,57,47,29,30.07,30.00,9,1,14,0.00
2013-1-3,54.6,45.1,34.3,24.3,19.0,15.4,46,36,26,30.11,27.52,12,2,12,0.00
2013-1-4,53.2,44.8,35.9,31.6,21.3,13.4,49,40,27,30.15,30.06,11,2,11,0.00
2013-1-5,56.8,49.2,38.4,25.3,22.6,19.5,49,35,27,30.15,30.02,7,1,7,0.00
2013-1-6,45.1,38.2,34.3,33.7,31.2,29.2,84,76,61,30.00,29.90,11,1,11,0.35
2013-1-7,42.0,35.8,30.9,34.7,30.5,26.1,85,81,72,30.09,29.95,7,0,7,0.02
2013-1-8,54.5,48.0,40.2,39.4,35.9,-8.0,73,63,49,30.08,30.02,9,1,9,0.00
2013-1-9,66.0,56.2,40.6,39.8,36.6,31.7,81,49,36,30.03,29.85,14,1,14,0.00
2013-1-10,40.4,32.4,29.1,35.2,26.7,23.9,84,79,74,29.92,29.82,10,0,10,0.27
2013-1-11,34.3,30.1,26.0,26.6,23.5,20.0,80,76,71,30.01,29.93,12,1,12,0.04
2013-1-12,34.1,28.4,23.3,24.7,20.7,17.1,82,73,62,30.02,29.94,9,1,9,0.08
2013-1-13,35.4,26.7,19.2,26.3,18.4,13.5,78,71,55,30.02,29.92,11,1,11,0.00
2013-1-14,35.6,30.9,23.5,17.1,13.6,7.2,63,49,37,30.17,30.09,16,1,16,0.00
2013-1-15,47.1,39.8,28.9,23.6,20.6,16.4,59,47,36,30.27,30.20,17,1,17,0.00
2013-1-16,56.3,49.1,36.3,31.1,26.1,18.7,61,41,27,567340416.00,30.15,17,3,17,0.00
2013-1-17,60.6,55.9,51.0,19.4,16.0,11.9,23,20,19,30.16,30.08,35,12,35,0.00
2013-1-18,61.5,55.8,50.3,19.2,15.2,11.9,22,20,18,30.14,30.05,23,8,23,0.00
2013-1-19,62.9,57.0,50.1,18.4,14.2,10.5,20,18,17,30.17,30.08,20,7,22,0.00
2013-1-20,63.5,54.9,44.0,28.8,18.1,9.2,37,24,17,30.13,30.03,20,3,20,0.00
2013-1-21,65.6,56.8,44.6,24.7,17.1,11.2,33,22,15,30.09,30.04,28,5,28,0.00
2013-1-22,65.6,59.1,50.3,19.8,16.9,13.3,23,19,17,567858048.00,30.01,26,8,26,0.00
2013-1-23,62.6,57.4,53.4,30.2,25.3,21.7,40,29,24,30.05,29.97,26,5,26,0.00
2013-1-24,60.6,52.1,46.7,48.7,42.0,30.1,80,69,41,30.08,29.97,27,2,27,0.22
2013-1-25,55.9,51.6,46.5,44.0,42.1,39.6,83,70,61,30.08,29.95,20,4,20,0.04
2013-1-26,54.1,48.3,43.7,47.0,43.2,38.9,87,83,75,29.91,29.86,9,1,9,0.06
2013-1-27,36.8,35.2,33.8,31.5,30.1,28.9,84,81,79,29.95,29.89,10,1,10,0.02
2013-1-28,39.3,34.8,30.7,29.5,27.1,23.7,80,74,65,30.07,29.97,10,1,10,0.00
2013-1-29,44.7,38.5,31.6,34.3,30.4,26.3,81,73,65,30.14,30.07,12,2,12,0.00
2013-1-30,57.7,51.3,42.4,40.6,34.4,28.9,59,52,45,30.20,30.16,13,1,13,0.00
2013-1-31,62.7,54.5,39.4,42.8,36.0,29.4,67,50,38,30.17,30.09,16,2,16,0.00
2013-2-1,64.9,56.4,44.4,44.8,38.5,31.0,59,51,40,30.14,30.05,10,2,10,0.00
2013-2-2,66.0,58.7,51.2,42.7,37.2,29.5,64,46,29,30.18,30.10,14,2,14,0.00
2013-2-3,57.9,49.5,39.9,45.7,38.9,28.0,75,67,56,30.10,30.00,6,1,7,0.00
2013-2-4,59.5,50.1,39.7,45.6,38.3,30.2,81,65,44,30.05,29.97,5,1,5,0.00
2013-2-5,63.1,54.1,43.3,40.6,35.6,5.8,76,52,29,569067584.00,29.89,13,2,13,0.00
2013-2-6,47.4,41.5,32.9,38.0,34.3,27.8,82,76,69,30.04,29.98,8,1,8,0.00
2013-2-7,49.6,40.3,33.9,36.5,31.2,22.8,83,71,48,29.98,29.83,12,1,12,0.00
2013-2-8,41.5,35.0,31.8,32.3,29.3,27.2,86,79,68,29.84,29.72,12,1,12,0.31
2013-2-9,40.1,35.9,29.6,28.5,25.0,19.3,79,64,58,29.93,29.85,8,1,8,0.02
2013-2-10,42.9,38.4,30.5,27.6,25.2,-12.0,72,59,53,29.94,29.86,8,2,8,0.00
2013-2-11,68.9,41.0,31.6,26.2,22.4,18.7,59,48,40,30.08,29.99,8,2,8,0.00
2013-2-12,52.1,44.2,34.7,29.0,24.6,20.6,63,46,36,30.19,30.14,11,2,11,0.00
2013-2-13,53.7,46.7,35.4,36.0,31.7,26.6,70,56,49,30.17,30.09,8,1,8,0.00
2013-2-14,58.8,49.5,40.2,39.2,33.6,28.6,69,55,42,30.12,30.05,14,1,14,0.00
2013-2-15,65.1,58.5,50.1,30.4,24.8,19.6,32,27,23,30.20,30.14,24,6,24,0.00
2013-2-16,66.5,56.2,42.4,31.4,25.7,19.8,55,33,20,30.14,29.98,26,4,26,0.00
2013-2-17,58.1,51.6,42.0,35.8,32.1,24.9,63,48,39,29.93,29.86,11,2,11,0.00
2013-2-18,57.0,50.4,38.3,38.1,33.2,28.0,66,52,38,29.93,29.80,10,1,10,0.00
2013-2-19,43.3,36.4,28.7,35.5,30.2,24.2,85,78,68,29.80,29.57,8,0,8,0.04
2013-2-20,44.7,31.8,27.1,33.2,25.6,23.2,87,78,60,29.89,29.59,9,0,9,0.19
2013-2-21,46.4,39.5,30.5,33.3,29.8,24.7,80,68,58,30.00,29.90,7,1,7,0.14
2013-2-22,46.7,41.2,32.9,34.9,30.8,25.6,76,67,56,30.10,30.03,8,1,8,0.00
2013-2-23,49.8,44.3,38.6,34.8,33.0,30.0,77,65,54,30.01,29.92,13,2,13,0.00
2013-2-24,48.2,42.2,33.8,32.6,28.3,19.6,73,58,52,30.07,30.01,5,1,5,0.00
2013-2-25,51.6,46.5,40.1,32.5,27.4,23.6,55,47,43,30.10,29.99,12,1,12,0.00
2013-2-26,50.9,45.3,35.7,37.3,33.5,28.8,76,63,56,30.07,29.99,12,2,12,0.00
2013-2-27,57.3,50.9,38.8,32.5,27.7,21.6,56,41,33,30.21,30.14,8,2,8,0.00
2013-2-28,57.5,51.5,41.5,33.5,30.8,27.6,58,45,37,30.31,30.24,10,2,10,0.00
2013-3-1,66.3,58.0,47.3,40.6,35.3,25.3,57,43,36,30.28,30.17,7,1,7,0.00
2013-3-2,74.8,65.1,52.8,39.0,34.4,30.7,46,33,24,30.18,30.04,15,2,15,0.00
2013-3-3,62.4,55.9,49.2,38.8,35.6,28.7,61,47,35,30.08,29.90,11,2,11,0.00
2013-3-4,56.3,50.5,44.0,43.1,39.2,35.2,76,65,54,30.01,29.96,11,2,11,0.00
2013-3-5,64.2,56.8,42.6,42.7,35.2,23.3,59,45,32,29.97,29.84,18,2,18,0.00
2013-3-6,54.1,46.3,42.0,40.3,37.6,35.3,80,72,58,29.97,29.89,12,1,12,0.02
2013-3-7,52.3,44.7,37.9,39.5,35.8,30.7,83,71,57,29.85,29.71,7,1,7,0.00
2013-3-8,45.6,37.8,33.0,35.7,31.5,28.4,84,78,67,29.90,29.65,9,1,9,0.92
2013-3-9,47.3,37.8,32.5,39.2,32.6,-14.4,87,82,70,30.14,29.89,10,1,10,0.10
2013-3-10,50.7,42.6,36.5,39.4,35.8,32.7,86,78,65,30.17,30.14,3,1,3,0.02
2013-3-22,57.9,50.0,43.8,37.3,34.9,33.0,70,57,46,29.93,29.85,12,2,12,0.00
2013-3-23,57.3,52.9,42.9,35.9,32.5,26.5,57,46,41,30.00,29.94,8,1,8,0.00
2013-3-24,63.1,56.4,37.9,40.0,35.7,26.8,64,46,39,30.00,26.47,10,1,10,0.00
2013-3-25,68.1,60.5,49.6,44.1,36.5,25.7,58,41,32,29.94,26.46,9,1,9,0.00
2013-3-26,63.3,58.4,41.7,43.3,37.1,30.5,64,45,35,29.90,29.85,9,2,9,0.00
2013-3-27,62.7,58.3,45.5,44.6,41.0,36.3,70,53,45,29.91,29.88,9,1,9,0.00
2013-3-28,64.9,58.8,45.5,50.0,44.8,38.3,80,60,48,30.00,26.53,9,1,9,0.00
2013-3-29,70.1,64.4,51.4,48.4,44.8,40.4,66,49,37,30.03,29.97,8,1,8,0.00
2013-3-30,70.8,65.6,55.5,48.7,44.3,37.8,56,46,39,30.02,29.92,8,1,8,0.00
2013-3-31,60.4,53.9,47.8,45.7,43.8,42.1,82,69,56,30.02,29.94,10,1,10,0.14
2013-4-1,58.8,50.2,43.1,43.6,40.5,37.5,84,70,54,30.05,29.97,9,1,9,0.02
2013-4-2,61.7,56.6,47.3,47.9,44.6,38.0,82,64,58,30.05,29.99,10,2,10,0.00
2013-4-3,68.3,62.2,48.0,51.5,47.1,42.5,81,58,50,30.04,29.97,10,1,10,0.00
2013-4-4,64.0,59.8,52.7,47.6,45.1,39.0,76,59,45,30.07,26.50,10,2,10,0.00
2013-4-5,61.8,56.0,49.8,48.4,45.1,41.5,77,67,59,30.04,26.53,12,1,12,0.00
2013-4-6,61.7,55.9,-13.7,47.6,42.3,-24.9,69,60,54,30.07,29.98,12,2,12,0.00
2013-4-7,62.4,56.3,47.8,45.2,42.0,37.6,77,59,48,30.01,29.82,12,2,12,0.00
2013-4-8,42.6,39.7,35.4,36.4,33.7,28.5,85,79,73,29.78,29.69,14,1,14,0.22
2013-4-9,57.0,50.3,41.3,41.8,33.5,27.6,78,53,40,29.99,29.87,13,1,13,0.00
2013-4-10,65.4,61.6,53.7,40.5,35.4,29.7,43,37,33,30.09,26.54,12,2,12,0.00
2013-4-11,69.0,62.7,53.2,45.6,41.8,37.0,62,47,39,29.91,29.78,8,2,12,0.00
2013-4-12,69.4,64.0,55.9,50.5,47.1,42.2,69,55,47,29.87,29.79,10,1,10,0.00
2013-4-13,71.4,64.4,54.5,48.5,40.8,34.5,63,42,31,29.83,29.74,9,2,9,0.00
2013-4-14,63.1,54.7,44.2,47.5,40.2,-19.9,79,59,44,29.81,29.72,13,1,13,0.00
2013-4-15,56.6,51.2,45.1,41.0,37.0,29.9,72,58,49,29.78,26.23,10,1,10,0.00
2013-4-16,52.3,47.2,40.2,34.4,29.8,24.5,69,51,44,29.90,29.84,11,2,11,0.00
2013-4-17,57.0,50.9,40.2,32.3,26.4,20.0,53,39,33,30.09,30.02,12,1,12,0.00
2013-4-18,67.1,59.8,47.3,30.9,26.4,9.0,39,28,23,30.15,30.09,10,2,10,0.00
2013-4-19,68.9,63.9,55.2,34.8,31.9,26.9,40,30,24,30.15,26.62,10,2,10,0.00
2013-4-20,71.4,66.6,54.3,46.5,41.6,35.0,48,40,33,30.01,29.95,14,2,14,0.00
2013-4-21,74.8,69.7,59.9,46.4,42.4,37.4,48,38,30,30.00,29.93,10,2,10,0.00
2013-4-22,79.5,72.5,60.9,44.5,40.5,34.8,43,32,26,29.95,29.84,10,2,10,0.00
2013-4-23,81.6,73.9,60.9,44.3,37.3,31.0,44,27,19,29.93,29.84,21,3,21,0.00
2013-4-24,82.5,74.9,60.9,44.2,35.0,27.1,39,25,17,29.84,26.33,19,2,19,0.00
2013-4-25,66.2,61.5,54.8,46.9,44.2,40.2,61,53,47,30.02,29.93,11,2,11,0.00
2013-4-26,72.1,67.3,54.1,50.7,47.5,37.9,59,49,44,30.12,30.03,13,2,13,0.00
2013-4-27,77.1,71.9,62.2,49.7,46.7,40.8,51,41,34,30.15,30.04,13,2,13,0.00
2013-4-28,79.5,74.2,62.4,51.3,45.8,37.1,41,37,30,30.00,29.90,14,2,14,0.00
2013-4-29,79.5,74.1,62.4,50.0,45.5,40.4,47,36,32,29.90,29.78,10,2,10,0.00
2013-4-30,78.4,73.5,63.6,49.3,46.2,42.3,46,38,34,29.81,29.74,10,2,10,0.00
2013-5-1,71.2,66.9,65.1,19.9,14.8,11.3,15,13,12,30.07,30.02,10,4,10,0.00
2013-5-2,82.5,73.9,62.2,22.8,18.4,12.3,15,12,10,30.18,26.71,26,8,26,0.00
2013-5-3,82.0,77.1,64.2,34.8,30.7,25.9,28,19,15,30.00,29.84,12,2,12,0.00
2013-5-4,82.9,77.0,62.7,42.3,37.4,33.9,35,24,19,29.76,29.63,11,1,11,0.00
2013-5-5,76.6,64.8,49.8,40.9,36.3,30.9,48,35,25,29.76,29.68,23,2,23,0.00
2013-5-6,69.9,61.9,52.1,47.4,41.1,35.4,71,47,35,29.86,29.79,11,1,11,0.00
2013-5-7,58.6,52.7,45.8,44.7,42.0,37.5,79,67,57,29.95,29.92,5,0,5,0.00
2013-5-8,66.3,63.7,57.0,47.4,46.4,43.7,62,53,50,30.01,26.54,8,2,8,0.00
2013-5-12,88.5,83.0,72.1,57.2,52.5,46.2,40,35,32,30.10,30.01,13,2,13,0.00
2013-5-13,87.2,81.6,70.8,52.0,48.8,42.8,39,32,27,30.07,29.96,15,2,15,0.00
2013-5-14,82.2,74.9,62.0,49.2,42.0,35.8,43,31,23,29.95,26.45,12,2,12,0.00
2013-5-15,80.4,75.7,63.6,51.2,45.2,35.5,43,34,29,29.99,29.91,11,2,11,0.00
2013-5-16,70.8,65.1,55.2,45.9,42.6,37.9,53,44,38,29.94,29.87,16,2,16,0.00
2013-5-17,67.8,62.4,54.3,45.8,42.6,37.0,66,49,42,29.94,29.90,12,2,12,0.00
2013-5-18,73.9,66.7,55.9,43.5,36.8,29.4,48,33,28,30.02,29.97,16,3,16,0.00
2013-5-19,74.4,69.4,57.3,46.8,41.7,34.5,43,37,32,30.02,29.94,16,2,16,0.00
2013-5-20,85.1,79.5,67.6,45.4,40.5,36.4,37,25,19,29.99,29.91,14,2,14,0.00
2013-5-21,84.9,77.4,63.8,46.0,38.7,28.2,32,25,22,29.93,29.81,11,2,11,0.00
2013-5-22,63.1,57.1,46.8,38.0,34.5,25.1,53,43,38,29.86,29.78,12,2,12,0.00
2013-5-23,65.3,59.3,48.2,32.8,29.0,24.2,39,32,27,29.91,29.82,13,2,13,0.00
2013-5-24,71.2,64.5,54.6,39.0,35.3,29.9,40,34,30,29.92,29.87,13,2,13,0.00
2013-5-25,73.9,68.7,57.3,39.9,34.0,11.3,38,28,10,29.93,29.89,13,2,13,0.00
2013-5-26,71.0,65.8,55.7,43.6,41.1,36.8,49,41,34,29.99,29.96,11,2,11,0.00
2013-5-27,72.3,66.5,57.2,47.4,42.3,35.1,56,42,37,29.99,29.91,10,2,10,0.00
2013-5-28,64.4,59.6,51.4,51.8,49.0,45.5,80,68,60,29.90,29.83,14,2,14,0.00
2013-5-29,73.2,69.2,62.2,50.5,47.7,45.3,57,47,40,29.89,26.34,13,2,13,0.00
2013-5-30,75.9,71.1,62.9,49.8,46.5,11.6,51,42,36,29.91,29.86,16,2,16,0.00
2013-5-31,80.2,75.2,65.3,47.4,44.8,40.4,41,34,31,29.97,29.92,13,2,13,0.00
2013-6-1,90.5,83.2,69.0,52.0,49.5,44.7,42,31,26,29.92,29.84,18,2,18,0.00
2013-6-2,90.8,85.4,73.5,53.2,49.1,44.1,37,29,24,29.80,29.72,11,2,11,0.00
2013-6-3,86.0,81.5,70.1,52.4,49.8,46.0,43,33,30,29.82,29.78,12,2,12,0.00
2013-6-4,82.7,78.1,68.7,54.4,51.4,48.0,48,39,36,29.90,29.86,10,2,10,0.00
2013-6-5,83.8,79.2,70.5,56.3,54.0,50.6,50,42,38,29.95,29.88,9,2,9,0.06
2013-6-6,87.6,81.7,72.3,58.5,56.0,52.3,50,42,37,29.92,29.85,13,2,13,0.00
2013-6-7,91.2,87.1,66.4,60.4,58.1,49.2,54,38,35,29.91,29.82,12,2,12,0.00
2013-6-8,99.6,92.2,80.0,61.7,57.8,44.7,40,32,26,29.84,29.78,13,2,13,0.00
2013-6-9,93.3,89.0,75.2,57.8,44.3,26.4,35,22,11,29.85,29.79,13,3,13,0.00
2013-6-10,77.7,72.2,64.7,51.4,48.8,42.9,50,44,36,29.91,29.85,13,2,13,0.00
2013-6-11,88.5,82.2,70.1,54.8,50.7,46.2,44,34,27,29.95,29.89,16,2,16,0.00
2013-6-12,86.7,81.7,70.3,57.1,51.9,37.9,42,36,30,29.95,29.90,11,2,11,0.00
2013-6-13,79.5,75.5,64.5,42.7,34.3,23.7,33,23,14,30.02,26.52,19,2,19,0.00
2013-6-14,81.3,75.9,65.4,44.4,41.7,37.7,36,29,26,29.93,29.84,12,2,12,0.00
2013-6-15,85.2,79.5,67.1,43.7,38.5,30.9,29,23,18,29.91,29.87,12,2,12,0.00
2013-6-16,84.7,79.5,70.5,45.4,40.6,5.9,33,25,19,30.02,29.98,17,2,17,0.00
2013-6-17,82.0,76.8,66.3,46.9,43.1,38.2,36,30,26,30.03,26.51,11,2,11,0.00
2013-6-18,78.9,73.8,62.4,48.9,43.6,38.9,44,34,25,29.95,29.86,12,2,12,0.00
2013-6-19,74.4,67.7,57.2,44.2,39.9,35.3,52,37,29,29.94,26.44,14,2,14,345.47
2013-6-20,76.8,71.6,62.0,44.0,40.4,35.3,40,32,28,29.93,26.42,11,2,11,0.00
2013-6-21,79.8,73.6,53.4,44.9,41.3,35.8,52,31,28,29.94,29.87,11,2,11,0.00
2013-6-22,82.7,78.0,67.4,45.3,41.8,35.5,33,28,24,29.92,29.85,10,2,10,0.00
2013-6-23,82.2,76.9,63.3,46.6,43.4,35.2,45,31,25,29.87,29.78,15,2,15,0.00
2013-6-24,74.8,70.9,64.0,53.7,51.5,48.3,58,50,46,29.89,26.39,14,2,14,0.00
2013-6-25,84.0,78.6,70.5,57.5,54.3,52.1,53,43,37,581160896.00,29.92,12,2,12,0.00
2013-6-26,85.6,81.1,74.4,61.3,59.5,56.6,54,48,43,30.02,29.99,12,3,12,0.00
2013-6-27,89.2,83.7,76.6,62.5,60.2,56.0,55,45,40,30.08,30.04,13,2,13,0.00
2013-6-28,92.8,87.8,78.4,62.2,59.5,54.7,51,39,34,30.06,29.97,13,2,13,0.00
2013-6-29,96.0,90.8,78.4,60.0,56.6,50.9,39,32,26,29.99,29.89,14,2,14,0.00
2013-6-30,100.4,93.9,81.5,61.7,57.8,53.3,38,30,27,29.92,29.84,12,2,12,0.00
2013-7-1,98.4,90.3,79.1,60.1,57.1,53.4,44,33,27,29.94,29.88,8,1,8,0.00
2013-7-2,100.5,93.4,80.7,61.2,55.4,48.1,41,28,23,29.99,29.94,12,2,12,0.00
2013-7-3,96.6,89.3,79.3,57.4,53.6,50.3,38,30,25,29.97,29.85,10,2,10,0.00
2013-7-4,97.7,92.9,80.6,60.4,57.8,52.0,39,31,27,29.85,29.79,12,3,12,0.00
2013-7-5,99.8,92.1,77.3,60.7,55.7,40.5,36,29,24,29.83,29.77,12,2,12,0.00
2013-7-6,94.8,86.5,73.7,51.7,47.1,42.8,33,26,21,29.83,29.78,11,2,11,0.00
2013-7-7,97.5,89.3,73.8,50.5,44.5,39.2,33,22,16,29.90,29.83,12,3,12,0.00
2013-7-8,98.2,91.9,76.6,49.4,44.5,38.2,25,20,15,30.00,29.94,15,2,15,0.00
2013-7-9,99.1,92.2,77.7,50.5,47.0,41.4,31,22,15,30.06,29.99,11,1,11,0.00
2013-7-10,96.6,86.1,73.2,51.0,47.7,42.4,33,27,18,30.02,29.93,7,0,7,0.00
2013-7-11,90.3,82.4,71.4,52.2,49.1,44.8,39,32,27,29.96,26.48,10,1,10,0.00
2013-7-12,88.5,83.1,73.4,51.1,46.6,42.4,34,28,22,29.94,29.88,11,2,11,0.00
2013-7-13,94.8,88.1,75.0,52.0,46.1,38.8,29,24,19,29.97,26.50,12,2,12,0.00
2013-7-14,93.5,87.0,75.9,47.0,43.3,39.1,28,22,18,30.00,29.91,12,3,114,0.00
2013-7-15,93.7,88.0,75.0,47.8,44.4,36.8,28,22,20,29.92,29.81,11,2,11,0.00
2013-7-16,87.6,81.6,69.6,45.5,41.3,37.6,33,24,21,29.97,29.91,12,2,12,0.00
2013-7-17,87.4,80.4,69.4,54.4,49.8,42.8,46,35,30,30.04,26.57,10,2,10,0.00
2013-7-18,88.3,82.0,72.5,53.1,49.2,43.3,38,32,29,30.04,26.51,11,2,11,0.00
2013-7-19,91.2,85.6,68.2,51.4,48.9,43.6,41,28,25,29.98,26.40,13,2,13,0.00
2013-7-20,96.4,87.6,78.6,53.4,49.9,46.3,34,28,23,29.88,26.37,13,2,13,0.00
2013-7-21,98.0,89.6,72.3,53.9,50.7,44.6,38,27,23,29.90,29.84,11,2,11,0.00
2013-7-22,95.5,86.0,71.1,60.5,56.1,49.7,64,37,26,29.97,26.47,11,2,11,0.00
2013-7-23,90.5,85.3,75.0,58.2,54.7,50.1,44,35,32,30.01,29.95,9,2,9,0.00
2013-7-24,91.7,86.6,77.3,57.6,53.8,48.3,44,33,28,29.99,26.52,12,2,12,0.00
2013-7-25,93.7,87.1,77.5,56.5,53.0,47.1,40,31,27,30.03,29.97,15,2,15,0.00
2013-7-26,89.9,83.7,71.6,64.0,59.0,55.4,67,44,36,30.09,26.56,9,1,9,0.02
2013-7-27,93.9,88.0,77.5,59.2,55.6,49.9,40,33,28,30.02,29.88,8,3,8,0.00
2013-7-28,93.7,85.4,71.9,56.5,51.3,45.3,41,31,25,29.90,29.83,12,2,12,0.00
2013-7-29,89.7,83.7,71.4,54.2,51.2,46.5,41,33,28,29.98,29.87,12,3,12,0.00
2013-7-30,87.4,82.0,71.9,55.2,51.4,46.1,41,35,31,30.05,30.00,16,2,16,0.00
2013-7-31,87.8,82.1,71.2,54.0,49.7,42.2,38,32,27,30.05,29.97,12,3,12,0.00
2013-8-1,85.2,79.0,67.1,49.3,41.5,37.1,41,27,21,30.01,29.92,14,2,14,0.00
2013-8-2,85.8,78.9,67.2,43.9,39.5,32.1,33,25,20,29.95,29.91,16,2,16,0.00
2013-8-3,88.8,81.4,66.7,43.6,38.1,33.8,31,22,17,29.96,29.91,15,3,15,0.00
2013-8-4,89.4,81.5,68.9,48.1,41.8,36.2,31,25,19,29.98,29.93,12,3,12,0.00
2013-8-5,87.9,81.8,69.9,49.6,46.2,40.2,37,29,26,29.99,26.47,11,2,11,0.00
2013-8-6,87.9,81.7,69.8,50.5,46.3,21.9,39,29,23,29.99,29.94,12,2,12,0.00
2013-8-7,81.5,75.9,65.1,49.9,46.5,42.1,44,35,29,30.04,29.97,15,2,15,0.00
2013-8-8,80.4,75.3,65.1,51.2,48.8,42.5,58,40,28,29.98,29.91,11,2,11,0.00
2013-8-9,81.1,74.7,65.8,50.5,46.3,43.3,44,37,29,29.94,26.43,8,2,8,0.00
2013-8-10,80.9,74.5,62.4,52.0,47.6,41.4,48,39,30,30.00,26.52,13,2,13,0.00
2013-8-11,82.0,76.2,65.4,52.6,49.7,43.9,48,40,34,29.99,26.50,16,2,16,0.00
2013-8-12,84.7,79.2,67.6,51.3,48.8,44.5,44,35,30,29.99,26.51,11,3,11,0.00
2013-8-13,87.6,81.6,70.5,51.6,48.6,42.5,42,32,28,30.00,29.94,12,2,12,0.00
2013-8-14,88.7,82.9,71.2,52.6,47.7,40.3,36,29,25,29.99,29.91,16,2,16,0.00
2013-8-15,91.7,84.8,72.1,52.4,48.2,42.2,34,28,25,29.99,29.94,14,2,14,0.00
2013-8-16,90.1,84.1,72.6,56.5,51.6,45.6,38,33,29,30.00,29.96,11,2,11,0.00
2013-8-17,91.0,83.1,63.5,55.6,49.6,44.2,50,32,24,30.00,29.88,14,2,14,0.00
2013-8-18,91.5,85.1,-10.9,53.3,50.3,-34.3,39,30,26,29.93,29.85,8,2,8,0.00
2013-8-19,101.1,89.8,75.0,59.9,56.7,49.7,47,34,25,29.96,29.86,21,5,21,0.00
2013-8-20,93.3,86.5,69.4,58.6,52.9,42.2,50,32,25,29.93,29.85,14,2,14,0.00
2013-8-21,93.0,84.7,74.8,52.6,49.4,44.8,38,30,25,29.94,26.46,10,2,10,0.00
2013-8-22,92.3,83.0,69.9,54.0,49.3,39.2,39,31,26,29.95,29.87,12,2,12,0.00
2013-8-23,85.1,78.1,59.9,53.6,49.6,41.2,50,37,33,29.90,29.82,10,2,10,0.00
2013-8-24,84.3,78.1,67.2,52.5,47.6,41.3,49,35,28,29.91,29.83,15,2,15,0.00
2013-8-25,82.7,78.1,67.6,53.8,49.2,41.8,41,36,30,29.94,29.90,13,2,13,0.00
2013-8-26,87.0,77.9,68.7,56.6,52.9,45.9,53,42,35,29.99,29.89,12,2,12,0.00
2013-8-27,90.5,81.1,63.3,59.9,57.3,51.7,69,45,36,29.93,26.40,12,2,12,0.00
2013-8-28,87.6,80.0,60.9,54.2,51.7,43.2,53,38,32,29.94,29.88,12,2,12,0.00
2013-8-29,89.7,82.4,73.5,57.6,54.7,52.1,48,39,32,30.04,29.98,10,2,10,0.00
2013-8-30,85.4,78.5,63.6,56.8,54.6,50.8,64,44,37,30.05,29.97,9,2,9,0.00
2013-8-31,89.7,83.0,69.4,56.4,54.2,51.3,53,38,31,30.01,29.92,10,2,10,0.00
2013-9-1,87.0,79.3,65.8,61.4,57.4,52.3,67,48,38,29.97,29.90,8,2,8,0.00
2013-9-2,85.8,79.2,65.4,60.2,57.5,53.3,65,48,41,29.96,29.89,11,2,11,0.00
2013-9-3,83.8,77.2,67.8,60.0,57.6,52.5,67,51,44,29.99,29.92,10,2,10,0.00
2013-9-4,85.8,80.1,63.1,58.3,55.7,51.3,72,44,36,30.00,29.94,10,2,10,0.00
2013-9-5,78.0,72.2,67.8,53.3,51.0,49.3,52,47,42,29.99,29.94,2,0,2,0.00
2013-9-6,92.1,82.4,68.3,56.4,52.6,47.9,58,37,25,29.97,29.89,8,1,8,0.00
2013-9-7,92.4,85.4,73.4,53.1,44.1,38.3,35,24,16,29.95,29.88,11,2,11,0.00
2013-9-8,89.6,82.6,66.0,50.5,45.9,37.5,35,28,24,29.92,29.82,13,2,13,0.00
2013-9-9,76.1,72.0,67.1,46.7,42.5,39.5,43,35,31,29.86,29.79,5,1,5,0.00
2013-9-10,88.7,81.8,68.5,49.7,47.2,41.8,44,30,25,29.89,29.82,43,2,43,0.00
2013-9-11,84.2,76.3,62.7,51.1,46.3,41.4,46,35,29,29.97,29.93,57,2,57,0.00
2013-9-12,83.1,75.0,63.3,51.5,48.5,43.4,54,40,27,29.97,26.49,33,2,33,0.00
2013-9-13,84.0,76.5,62.6,53.9,51.1,47.0,57,41,34,29.89,29.79,12,2,12,0.00
2013-9-14,85.6,78.8,62.6,55.6,52.9,48.4,62,41,35,29.83,29.75,11,2,11,0.00
2013-9-15,89.4,80.0,67.2,56.9,53.3,48.0,59,40,33,29.86,26.35,10,2,10,0.00
2013-9-16,84.0,75.3,62.4,54.3,51.2,43.5,56,43,35,29.89,29.81,8,1,8,0.00
2013-9-17,73.5,66.3,57.3,51.3,47.3,44.0,66,51,42,29.84,29.78,9,1,9,0.00
2013-9-18,74.8,64.8,53.2,48.9,44.6,39.6,65,48,36,29.87,26.38,14,2,14,0.00
2013-9-19,80.4,73.3,59.3,48.7,45.9,41.6,56,38,32,29.87,26.35,11,2,11,0.00
2013-9-20,84.2,76.6,64.2,48.7,44.1,37.5,40,32,23,29.85,29.80,13,2,13,0.00
2013-9-21,70.3,65.3,55.2,49.9,45.9,40.4,65,50,43,29.86,29.76,12,2,12,0.00
2013-9-22,63.3,56.5,46.2,45.7,42.5,39.2,80,60,50,29.92,29.85,12,2,12,0.00
2013-9-23,71.2,65.9,49.8,48.8,46.9,43.2,78,51,44,29.97,29.91,9,2,9,0.00
2013-9-24,70.8,65.5,59.1,48.5,43.7,40.2,59,46,35,29.96,29.85,7,1,7,0.00
2013-9-25,61.1,56.5,49.2,44.1,39.8,35.9,72,54,46,29.84,26.33,13,2,13,0.00
2013-9-26,58.8,54.2,45.6,38.1,35.1,29.7,61,49,43,29.89,29.78,13,2,13,0.00
2013-9-27,66.0,58.5,42.0,38.4,35.3,30.7,64,42,35,30.03,29.97,93,2,93,0.00
2013-9-28,74.8,67.9,45.1,38.9,35.1,29.0,53,30,25,30.04,26.54,14,2,14,0.00
2013-9-29,77.1,69.8,52.8,38.6,32.4,25.2,34,25,20,30.07,30.01,59,2,59,0.00
2013-9-30,73.5,65.7,53.2,49.0,44.2,39.1,63,47,30,30.03,29.92,14,2,14,0.00
2013-10-1,70.5,64.8,53.9,52.9,49.2,44.7,71,57,50,29.95,29.88,14,2,14,0.00
2013-10-2,66.9,58.8,51.0,49.8,44.0,-30.7,82,59,45,29.95,29.88,18,1,18,0.00
2013-10-3,64.9,58.9,48.9,38.0,35.5,32.1,54,42,35,29.93,29.85,14,2,14,0.00
2013-10-4,71.0,64.2,55.2,23.5,20.5,17.6,25,19,15,30.08,29.98,29,10,29,0.00
2013-10-5,75.5,68.7,58.8,26.1,22.3,17.5,25,17,15,30.17,30.11,23,7,23,0.00
2013-10-6,76.8,69.0,57.3,28.2,24.1,18.9,24,19,15,30.12,30.02,20,4,20,0.00
2013-10-7,79.3,68.5,53.7,31.4,26.3,19.6,29,21,15,29.99,29.88,12,2,12,0.00
2013-10-8,70.8,63.3,50.1,33.9,30.7,26.8,41,30,23,29.87,29.72,10,2,10,0.00
2013-10-9,57.7,48.1,40.2,38.0,35.2,-33.3,79,62,45,29.71,29.58,12,2,12,0.26
2013-10-10,58.8,53.9,39.9,41.4,38.3,33.3,82,56,47,29.91,29.74,10,2,10,0.00
2013-10-12,67.1,60.0,49.8,41.7,38.5,34.5,66,46,33,29.95,29.85,12,2,114,0.00
2013-10-13,59.9,54.8,45.6,40.4,37.1,34.1,64,52,43,29.98,29.89,13,2,13,0.00
2013-10-14,67.6,60.1,49.2,39.7,36.0,32.2,52,41,35,30.04,29.96,16,3,16,0.00
2013-10-15,70.5,63.2,51.0,38.9,34.5,25.1,53,34,29,29.99,29.92,12,3,12,0.00
2013-10-16,67.8,62.4,56.1,29.1,26.5,24.2,29,25,23,30.08,30.07,22,5,22,0.00
2013-10-17,66.0,57.5,51.2,34.5,31.3,27.1,43,37,31,30.04,29.95,7,1,7,0.00
2013-10-18,74.8,66.0,52.3,36.5,32.9,25.5,39,30,23,30.02,29.98,8,3,8,0.00
2013-10-19,77.5,67.8,53.2,37.4,31.8,24.3,37,27,19,30.06,29.99,12,2,12,0.00
2013-10-20,72.3,64.3,51.0,38.4,34.8,30.4,47,34,26,29.98,29.91,12,3,12,0.00
2013-10-21,79.8,69.2,50.7,35.0,28.0,21.7,33,22,16,29.97,29.91,18,3,18,0.00
2013-10-22,81.3,70.0,55.9,34.2,28.8,23.3,34,22,16,30.00,29.91,21,4,21,0.00
2013-10-23,77.9,65.9,52.5,40.6,33.6,24.9,42,31,22,29.93,29.87,8,2,8,0.00
2013-10-24,72.1,63.4,49.3,42.2,36.8,29.9,48,38,31,30.03,29.93,10,2,10,0.00
2013-10-25,71.7,62.3,49.8,43.8,38.3,28.1,54,41,33,30.10,30.05,8,2,8,0.00
2013-10-26,77.0,66.6,52.3,43.4,37.0,28.6,50,35,24,30.09,30.00,12,1,12,0.00
2013-10-27,73.5,64.0,50.0,43.3,35.6,26.0,48,35,24,29.94,29.70,10,2,10,0.00
2013-10-28,54.3,46.6,41.7,39.2,37.0,34.0,81,70,50,29.77,29.69,14,1,14,0.27
2013-10-29,52.7,47.0,42.0,40.6,37.5,33.5,84,70,59,29.89,29.85,8,1,8,0.00
2013-10-30,53.7,47.6,35.2,41.1,37.7,30.9,85,69,60,30.02,29.92,10,1,10,0.00
2013-10-31,61.5,52.6,36.3,43.6,39.1,31.9,84,61,47,30.08,30.01,5,1,5,0.00
2013-11-1,72.5,65.4,58.6,40.1,34.1,28.3,40,31,24,30.10,29.99,20,4,20,0.00
2013-11-2,67.8,62.3,52.8,35.9,32.7,29.2,46,33,26,29.96,29.86,11,2,11,0.00
2013-11-3,57.0,47.7,39.3,38.4,34.2,29.5,70,60,48,29.92,29.81,11,1,11,0.00
2013-11-4,52.5,45.4,36.1,30.7,27.6,24.1,63,50,42,29.92,29.81,9,2,9,0.00
2013-11-5,60.6,54.2,42.4,27.6,20.9,14.5,42,27,22,30.12,30.02,16,4,16,0.00
2013-11-6,68.3,63.4,57.0,27.1,23.0,17.7,26,21,18,30.20,30.13,22,8,22,0.00
2013-11-7,73.2,64.4,52.3,33.6,29.0,24.1,34,27,21,30.12,30.02,14,3,14,0.00
2013-11-8,69.4,61.4,47.4,35.4,31.4,25.5,42,33,27,30.01,29.93,7,1,7,0.00
2013-11-9,72.1,61.4,48.9,33.0,24.0,2.4,30,24,16,30.01,29.95,8,2,8,0.00
2013-11-10,73.7,65.6,52.7,26.1,23.1,16.8,26,20,16,30.07,30.01,11,3,11,0.00
2013-11-11,74.1,65.6,56.8,33.0,26.8,20.8,27,23,19,30.12,30.03,16,4,16,0.00
2013-11-12,69.9,60.9,47.3,38.2,30.1,23.5,44,31,23,30.21,30.10,11,1,11,0.00
2013-11-13,64.2,54.8,43.3,39.7,35.7,28.2,57,49,39,30.14,30.05,7,1,7,0.00
2013-11-14,70.1,60.8,45.6,40.0,35.8,10.5,57,40,29,30.01,29.84,6,1,6,0.00
2013-11-15,57.7,52.4,46.0,40.5,38.0,34.2,65,58,51,29.75,29.66,13,2,13,0.00
2013-11-16,53.7,50.6,40.8,37.7,34.9,30.1,75,55,50,29.81,29.74,8,4,8,0.00
2013-11-17,56.3,48.8,38.4,37.4,34.2,30.4,74,58,48,29.99,29.89,7,1,7,0.00
2013-11-18,58.8,52.8,42.6,39.7,36.2,32.0,67,54,46,30.04,29.96,8,1,8,0.00
2013-11-19,56.1,48.7,41.9,41.5,38.0,33.2,77,67,55,30.01,29.89,9,1,9,0.00
2013-11-20,56.8,52.0,44.0,43.0,41.5,37.6,81,68,56,29.88,29.78,7,1,7,0.15
2013-11-21,52.3,46.6,41.1,46.9,41.5,35.6,89,82,77,29.85,29.76,16,2,16,0.51
2013-11-22,48.9,45.3,40.4,36.2,34.6,32.1,81,66,59,29.90,29.84,17,5,17,0.12
2013-11-23,50.1,45.6,41.1,35.0,32.9,30.8,68,61,55,29.97,29.92,8,2,8,0.00
2013-11-24,48.9,48.3,43.1,34.4,33.8,31.8,64,57,56,594298752.00,30.06,4,0,7,0.00
2013-11-25,55.2,50.6,41.5,40.1,36.9,31.9,73,60,51,30.18,30.13,6,0,6,0.00
2013-11-26,64.2,60.5,53.7,33.0,31.4,29.4,39,33,30,30.15,30.03,25,9,25,0.00
2013-11-27,60.6,54.6,49.6,34.2,31.6,29.6,46,41,36,29.95,29.84,29,12,29,0.00
2013-11-28,57.0,52.3,48.5,32.9,30.7,-19.4,48,44,39,29.98,29.86,31,7,31,0.00
2013-11-29,62.6,54.0,47.8,34.9,31.0,27.7,47,42,34,30.12,30.03,20,5,20,0.00
2013-11-30,58.4,51.2,40.4,35.6,31.9,28.0,63,48,39,30.16,30.07,7,1,7,0.00
2013-12-1,58.8,50.5,37.9,38.5,31.6,25.1,62,48,40,30.22,30.13,6,1,6,0.00
2013-12-2,60.4,54.9,43.7,36.4,30.1,24.3,52,39,26,30.08,29.89,9,1,9,0.00
2013-12-3,54.1,45.0,32.9,40.7,36.6,27.8,83,73,59,29.79,29.62,17,2,17,0.33
2013-12-4,37.2,30.7,24.8,27.8,22.4,18.1,82,71,57,29.88,29.72,7,1,8,0.00
2013-12-5,34.5,29.0,20.8,23.3,18.7,13.5,79,65,54,29.95,29.89,10,1,10,0.00
2013-12-6,40.4,32.9,23.3,20.6,15.9,-17.6,73,49,41,30.00,29.93,8,0,8,0.00
2013-12-7,34.3,31.1,27.3,28.1,24.6,19.5,82,77,71,29.96,29.80,14,0,14,0.00
2013-12-8,35.7,27.9,19.5,24.2,18.6,12.3,80,68,57,30.05,29.97,10,1,10,0.29
2013-12-9,40.2,36.6,31.8,13.8,9.8,4.8,41,32,28,30.21,30.13,33,10,33,0.04
2013-12-10,50.7,42.4,32.5,19.1,15.3,9.7,46,34,24,595678208.00,30.04,14,2,19,0.00
2013-12-11,53.7,49.6,43.3,20.1,17.3,15.1,32,27,25,30.12,30.06,25,10,25,0.00
2013-12-12,55.9,46.7,37.0,26.0,19.6,14.0,44,34,26,30.12,30.05,10,2,10,0.00
2013-12-13,49.6,41.8,33.0,27.7,22.3,18.3,56,46,30,30.16,30.09,7,1,7,0.00
2013-12-14,60.0,55.2,47.7,24.0,21.3,17.7,34,26,24,30.25,30.18,22,6,22,0.00
2013-12-15,67.6,61.6,55.9,30.9,24.1,18.0,30,24,19,30.23,30.14,19,4,19,0.00
2013-12-16,72.3,66.4,58.8,25.7,23.2,-42.1,26,19,17,30.17,30.09,23,7,23,0.00
2013-12-17,72.5,63.5,52.1,28.7,25.3,22.3,32,24,18,30.15,30.02,20,4,20,0.00
2013-12-18,67.6,59.1,48.9,35.3,28.5,23.6,37,31,24,29.94,29.73,7,1,7,0.00
2013-12-19,45.3,41.3,38.4,34.9,32.2,30.5,76,70,61,29.72,29.63,11,1,11,0.00
2013-12-20,42.9,36.0,29.1,34.0,28.2,22.5,84,73,61,29.87,29.79,7,0,7,0.02
2013-12-21,49.6,42.3,32.9,34.6,30.7,26.2,85,64,52,29.97,29.86,9,1,9,0.02
2013-12-22,57.9,48.3,38.8,34.8,30.5,24.6,67,50,40,30.17,30.06,9,1,9,0.00
2013-12-23,62.2,53.5,42.9,34.2,30.7,26.9,53,42,34,30.27,30.20,12,3,12,0.00
2013-12-24,60.6,51.5,39.9,36.4,31.6,25.4,62,47,37,30.19,30.11,10,1,10,0.00
2013-12-25,65.1,59.4,54.3,21.7,17.3,12.9,25,19,17,30.22,30.15,27,11,27,0.00
2013-12-26,66.0,60.6,53.6,17.8,13.2,8.2,18,15,14,30.19,30.10,23,7,23,0.00
2013-12-27,67.8,59.2,49.1,29.8,19.4,10.1,29,22,13,30.17,30.06,13,2,13,0.00
2013-12-28,55.9,47.5,39.3,31.4,22.3,13.1,49,37,27,30.00,29.93,6,1,6,0.00
2013-12-29,61.8,54.8,45.6,17.9,13.9,8.6,24,20,17,30.09,30.03,17,4,17,0.00
2013-12-30,64.5,55.1,45.8,20.1,14.9,9.8,25,20,14,30.17,30.11,8,2,8,0.00
2013-12-31,61.1,50.6,41.5,23.7,19.0,13.3,36,29,20,30.14,30.05,13,2,13,0.00
2014-1-1,67.1,60.6,54.1,27.2,22.9,20.4,29,24,19,30.11,30.05,20,5,20,0.00
2014-1-2,66.7,57.1,46.2,33.4,27.9,22.6,39,33,26,30.10,30.00,17,3,17,0.00